Location: Kellogg
(38.0159°N, 90.0546°W)
Time: 12:03:56
(UTC+00:00)

ACS3 Solar Sail - Pass Details

Date: 19 August 2024
Orbit: 973 x 1034 km, 97.4° (Epoch: 16 September)

Event Time Altitude Azimuth Distance (km) Brightness Sun altitude
Exits shadow 02:20:12 24° 145° (SE) 1,972 2.9 -17.2°
Maximum altitude 02:24:05 59° 74° (ENE) 1,160 2.0 -17.9°
Drops below altitude 10° 02:30:21 10° 356° (N) 2,832 4.7 -18.9°
Sets 02:32:54 0° 353° (N) 3,796 5.5 -19.3°
